CW2972 Weather Reports


time (UTC)temp
C
wind
direction
speed
KPH
gust
KPH
rain 1hr
cm
rain 24hr
cm
rain mn
cm
humidity
%
barometer
mb
20240222121404 13 219 3.2 17.7 0.00 0.00 0.00 77 1010.5
20240222121205 13 223 3.2 8.0 0.00 0.00 0.00 76 1010.5
20240222121005 13 222 3.2 8.0 0.00 0.00 0.00 76 1010.5
20240222120804 13 222 3.2 9.7 0.00 0.00 0.00 76 1010.5
20240222120604 13 216 3.2 9.7 0.00 0.00 0.00 76 1010.6
20240222120425 13 215 3.2 9.7 0.00 0.00 0.00 76 1010.6
20240222120204 13 211 3.2 9.7 0.00 0.00 0.00 76 1010.5
20240222120005 13 209 3.2 9.7 0.00 0.00 0.00 76 1010.5
20240222115805 13 204 3.2 8.0 0.00 0.00 0.00 76 1010.5
20240222115605 13 203 3.2 8.0 0.00 0.00 0.00 76 1010.5
20240222115427 13 206 3.2 8.0 0.00 0.00 0.00 76 1010.5
20240222115205 13 211 3.2 8.0 0.00 0.00 0.00 76 1010.5
20240222115005 13 205 3.2 8.0 0.00 0.00 0.00 75 1010.4
20240222114805 13 205 3.2 9.7 0.00 0.00 0.00 75 1010.4
20240222114605 13 208 3.2 9.7 0.00 0.00 0.00 75 1010.5
20240222114404 13 198 3.2 9.7 0.00 0.00 0.00 75 1010.4
20240222114205 13 186 3.2 9.7 0.00 0.00 0.00 75 1010.5
20240222114004 13 194 3.2 9.7 0.00 0.00 0.00 75 1010.5
20240222113804 13 196 3.2 8.0 0.00 0.00 0.00 75 1010.5
20240222113604 13 194 3.2 8.0 0.00 0.00 0.00 75 1010.6
20240222113425 13 199 3.2 8.0 0.00 0.00 0.00 75 1010.6
20240222113204 13 203 3.2 8.0 0.00 0.00 0.00 75 1010.6
20240222113004 13 193 3.2 8.0 0.00 0.00 0.00 74 1010.7
20240222112804 13 198 3.2 9.7 0.00 0.00 0.00 74 1010.8
20240222112604 13 205 3.2 9.7 0.00 0.00 0.00 74 1010.8
20240222112404 13 203 3.2 9.7 0.00 0.00 0.00 74 1010.9
20240222112204 13 207 3.2 9.7 0.00 0.00 0.00 74 1011.0
20240222112005 13 211 3.2 9.7 0.00 0.00 0.00 74 1010.9
20240222111805 13 205 3.2 9.7 0.00 0.00 0.00 74 1011.0
20240222111604 13 196 3.2 8.0 0.00 0.00 0.00 74 1011.1
20240222111405 13 206 3.2 8.0 0.00 0.00 0.00 74 1011.1
20240222111205 13 198 3.2 8.0 0.00 0.00 0.00 73 1011.1
20240222111005 13 196 3.2 9.7 0.00 0.00 0.00 73 1011.1
20240222110805 13 199 3.2 9.7 0.00 0.00 0.00 73 1011.2
20240222110604 13 200 3.2 9.7 0.00 0.00 0.00 73 1011.1
20240222110405 13 197 3.2 9.7 0.00 0.00 0.00 73 1011.1
20240222110205 13 206 3.2 9.7 0.00 0.00 0.00 73 1011.1
20240222110005 13 204 3.2 9.7 0.00 0.00 0.00 73 1011.1
20240222105805 13 200 3.2 9.7 0.00 0.00 0.00 72 1011.0
20240222105605 13 201 3.2 9.7 0.00 0.00 0.00 72 1011.1
20240222105405 13 196 3.2 9.7 0.00 0.00 0.00 72 1011.1
20240222105204 13 189 3.2 9.7 0.00 0.00 0.00 72 1011.1
20240222105005 13 193 3.2 8.0 0.00 0.00 0.00 72 1011.1
20240222104804 13 196 3.2 8.0 0.00 0.00 0.00 72 1011.1
20240222104604 13 197 3.2 8.0 0.00 0.00 0.00 72 1011.1
20240222104405 13 198 4.8 9.7 0.00 0.00 0.00 72 1011.1
20240222104226 13 201 4.8 11.3 0.00 0.00 0.00 72 1011.1
20240222104005 13 197 4.8 12.9 0.00 0.00 0.00 72 1011.1
20240222103805 13 191 4.8 12.9 0.00 0.00 0.00 72 1011.1
20240222103626 13 190 3.2 12.9 0.00 0.00 0.00 71 1011.0
20240222103405 13 184 3.2 12.9 0.00 0.00 0.00 72 1011.0
20240222103205 13 182 3.2 12.9 0.00 0.00 0.00 71 1011.0
20240222103005 13 180 3.2 8.0 0.00 0.00 0.00 71 1011.1
20240222102804 13 182 3.2 8.0 0.00 0.00 0.00 71 1011.1
20240222102604 13 184 3.2 8.0 0.00 0.00 0.00 71 1011.1
20240222102425 13 191 3.2 8.0 0.00 0.00 0.00 71 1011.1
20240222102204 13 191 3.2 9.7 0.00 0.00 0.00 71 1011.1
20240222102004 13 194 3.2 11.3 0.00 0.00 0.00 71 1011.2
20240222101804 13 192 3.2 11.3 0.00 0.00 0.00 71 1011.2
20240222101604 13 190 3.2 12.9 0.00 0.00 0.00 71 1011.2
20240222101404 13 186 3.2 12.9 0.00 0.00 0.00 71 1011.2
20240222101204 13 178 3.2 12.9 0.00 0.00 0.00 71 1011.1
20240222101004 13 180 3.2 12.9 0.00 0.00 0.00 71 1011.2
20240222100804 13 183 3.2 12.9 0.00 0.00 0.00 70 1011.3
20240222100604 13 179 3.2 9.7 0.00 0.00 0.00 70 1011.3
20240222100404 13 183 3.2 9.7 0.00 0.00 0.00 70 1011.2
20240222100205 13 189 3.2 9.7 0.00 0.00 0.00 70 1011.2
20240222100005 13 176 3.2 9.7 0.00 0.00 0.00 70 1011.3
20240222095805 13 175 3.2 9.7 0.00 0.00 0.00 70 1011.3
20240222095605 13 175 3.2 9.7 0.00 0.00 0.00 70 1011.3
20240222095405 13 174 3.2 9.7 0.00 0.00 0.00 70 1011.3
20240222095225 13 178 3.2 9.7 0.00 0.00 0.00 70 1011.4
20240222095004 13 182 3.2 8.0 0.00 0.00 0.00 70 1011.3
20240222094804 13 186 3.2 8.0 0.00 0.00 0.00 70 1011.3
20240222094604 13 191 3.2 8.0 0.00 0.00 0.00 70 1011.3
20240222094425 13 189 3.2 8.0 0.00 0.00 0.00 70 1011.5
20240222094204 13 185 3.2 8.0 0.00 0.00 0.00 69 1011.5
20240222094005 13 184 3.2 8.0 0.00 0.00 0.00 70 1011.5
20240222093805 13 186 3.2 8.0 0.00 0.00 0.00 69 1011.6
20240222093605 14 184 3.2 8.0 0.00 0.00 0.00 69 1011.6
20240222093426 13 179 3.2 6.4 0.00 0.00 0.00 69 1011.7
20240222093205 14 181 3.2 8.0 0.00 0.00 0.00 69 1011.7
20240222093004 14 182 3.2 8.0 0.00 0.00 0.00 69 1011.7
20240222092804 14 178 3.2 8.0 0.00 0.00 0.00 69 1011.7
20240222092604 14 177 3.2 8.0 0.00 0.00 0.00 69 1011.7
20240222092425 14 180 3.2 8.0 0.00 0.00 0.00 69 1011.8
20240222092204 14 186 3.2 12.9 0.00 0.00 0.00 69 1011.8
20240222092025 14 186 3.2 12.9 0.00 0.00 0.00 69 1011.8
20240222091804 14 188 3.2 12.9 0.00 0.00 0.00 69 1011.9
20240222091604 14 187 3.2 12.9 0.00 0.00 0.00 69 1011.9
20240222091404 14 187 3.2 12.9 0.00 0.00 0.00 68 1011.9
20240222091225 14 186 3.2 8.0 0.00 0.00 0.00 69 1011.9
20240222091025 14 180 3.2 8.0 0.00 0.00 0.00 69 1011.8
20240222090805 14 176 3.2 8.0 0.00 0.00 0.00 68 1012.0
20240222090627 14 179 3.2 8.0 0.00 0.00 0.00 68 1012.0
20240222090426 14 178 3.2 8.0 0.00 0.00 0.00 68 1012.0
20240222090205 14 177 3.2 8.0 0.00 0.00 0.00 68 1012.1
20240222090006 14 183 3.2 8.0 0.00 0.00 0.00 68 1012.0
20240222085805 14 184 3.2 8.0 0.00 0.00 0.00 68 1012.0
20240222085605 13 182 3.2 6.4 0.00 0.00 0.00 68 1012.0
20240222085405 14 184 3.2 6.4 0.00 0.00 0.00 68 1012.0
20240222085205 13 185 3.2 6.4 0.00 0.00 0.00 68 1012.1
20240222085005 13 178 3.2 8.0 0.00 0.00 0.00 68 1012.1
20240222084825 13 180 3.2 8.0 0.00 0.00 0.00 68 1012.1
20240222084604 13 183 3.2 9.7 0.00 0.00 0.00 68 1012.2
20240222084404 13 182 3.2 9.7 0.00 0.00 0.00 68 1012.2
20240222084205 13 184 3.2 9.7 0.00 0.00 0.00 68 1012.2
20240222084005 13 190 3.2 9.7 0.00 0.00 0.00 68 1012.2
20240222083805 13 185 3.2 9.7 0.00 0.00 0.00 68 1012.2
20240222083605 13 187 3.2 8.0 0.00 0.00 0.00 68 1012.2
20240222083405 13 184 3.2 8.0 0.00 0.00 0.00 68 1012.3
20240222083204 13 178 3.2 8.0 0.00 0.00 0.00 68 1012.2
20240222083004 13 176 3.2 8.0 0.00 0.00 0.00 68 1012.3
20240222082825 13 181 3.2 6.4 0.00 0.00 0.00 68 1012.2
20240222082605 13 183 3.2 8.0 0.00 0.00 0.00 68 1012.3
20240222082404 13 187 3.2 8.0 0.00 0.00 0.00 68 1012.3
20240222082204 13 188 3.2 8.0 0.00 0.00 0.00 68 1012.3
20240222082004 13 191 3.2 8.0 0.00 0.00 0.00 68 1012.4
20240222081805 13 183 3.2 8.0 0.00 0.00 0.00 68 1012.3
20240222081605 13 176 3.2 8.0 0.00 0.00 0.00 68 1012.3
20240222081404 13 170 3.2 8.0 0.00 0.00 0.00 68 1012.4
20240222081205 13 163 3.2 8.0 0.00 0.00 0.00 68 1012.4
20240222081026 13 161 3.2 8.0 0.00 0.00 0.00 68 1012.4
20240222080804 13 168 3.2 8.0 0.00 0.00 0.00 68 1012.5
20240222080625 13 178 3.2 8.0 0.00 0.00 0.00 68 1012.4
20240222080404 13 186 3.2 8.0 0.00 0.00 0.00 69 1012.4
20240222080204 13 196 3.2 8.0 0.00 0.00 0.00 69 1012.4
20240222080004 13 194 3.2 9.7 0.00 0.00 0.00 69 1012.5
20240222075804 13 192 3.2 9.7 0.00 0.00 0.00 69 1012.6
20240222075604 12 198 3.2 9.7 0.00 0.00 0.00 70 1012.7
20240222075404 12 204 1.6 9.7 0.00 0.00 0.00 70 1012.6
20240222075206 12 203 1.6 9.7 0.00 0.00 0.00 70 1012.7
20240222075005 12 209 1.6 9.7 0.00 0.00 0.00 70 1012.7
20240222074805 12 209 1.6 9.7 0.00 0.00 0.00 70 1012.7
20240222074605 12 206 1.6 6.4 0.00 0.00 0.00 70 1012.7
20240222074404 12 196 1.6 4.8 0.00 0.00 0.00 70 1012.8
20240222074204 12 204 1.6 4.8 0.00 0.00 0.00 70 1012.8
20240222074004 12 202 1.6 4.8 0.00 0.00 0.00 70 1012.8
20240222073804 12 197 1.6 11.3 0.00 0.00 0.00 70 1012.8
20240222073604 12 199 1.6 11.3 0.00 0.00 0.00 70 1012.9
20240222073404 12 204 1.6 11.3 0.00 0.00 0.00 69 1012.9
20240222073204 12 204 1.6 11.3 0.00 0.00 0.00 70 1013.0
20240222073004 12 203 1.6 11.3 0.00 0.00 0.00 69 1013.0
20240222072804 12 209 1.6 4.8 0.00 0.00 0.00 69 1013.0
20240222072604 12 205 1.6 3.2 0.00 0.00 0.00 69 1013.1
20240222072404 12 206 1.6 3.2 0.00 0.00 0.00 69 1013.1
20240222072226 12 206 1.6 3.2 0.00 0.00 0.00 69 1013.1
20240222072005 12 209 1.6 4.8 0.00 0.00 0.00 69 1013.0
20240222071806 12 217 1.6 4.8 0.00 0.00 0.00 69 1013.1
20240222071605 12 221 1.6 4.8 0.00 0.00 0.00 68 1013.1
20240222071404 12 220 1.6 4.8 0.00 0.00 0.00 68 1013.1
20240222071204 12 214 1.6 4.8 0.00 0.00 0.00 68 1013.2
20240222071004 12 211 1.6 3.2 0.00 0.00 0.00 68 1013.1
20240222070825 12 208 1.6 3.2 0.00 0.00 0.00 68 1013.2
20240222070604 12 205 1.6 4.8 0.00 0.00 0.00 68 1013.2
20240222070404 12 200 1.6 4.8 0.00 0.00 0.00 68 1013.1
20240222070204 12 201 1.6 4.8 0.00 0.00 0.00 68 1013.1
20240222070005 12 203 1.6 4.8 0.00 0.00 0.00 67 1013.1
20240222065805 12 207 1.6 4.8 0.00 0.00 0.00 67 1013.1
20240222065605 12 204 1.6 4.8 0.00 0.00 0.00 67 1013.1
20240222065405 12 196 1.6 4.8 0.00 0.00 0.00 67 1013.1
20240222065225 12 194 1.6 4.8 0.00 0.00 0.00 67 1013.1
20240222065025 12 193 1.6 4.8 0.00 0.00 0.00 66 1013.1
20240222064804 12 183 1.6 4.8 0.00 0.00 0.00 66 1013.1
20240222064605 12 180 1.6 4.8 0.00 0.00 0.00 66 1013.1
20240222064425 12 193 1.6 6.4 0.00 0.00 0.00 66 1013.1
20240222064207 12 190 1.6 6.4 0.00 0.00 0.00 66 1013.2
20240222064005 12 188 1.6 6.4 0.00 0.00 0.00 66 1013.2
20240222063826 12 186 1.6 6.4 0.00 0.00 0.00 66 1013.2
20240222063605 12 183 1.6 6.4 0.00 0.00 0.00 66 1013.2
20240222063405 12 181 1.6 4.8 0.00 0.00 0.00 66 1013.2
20240222063205 12 183 1.6 4.8 0.00 0.00 0.00 66 1013.2
20240222063026 12 187 1.6 4.8 0.00 0.00 0.00 66 1013.3
20240222062805 12 181 1.6 4.8 0.00 0.00 0.00 65 1013.3
20240222062605 12 182 1.6 4.8 0.00 0.00 0.00 65 1013.3
20240222062404 12 178 1.6 4.8 0.00 0.00 0.00 65 1013.3
20240222062204 12 177 1.6 4.8 0.00 0.00 0.00 65 1013.3
20240222062025 12 176 1.6 4.8 0.00 0.00 0.00 65 1013.3
20240222061804 12 186 1.6 4.8 0.00 0.00 0.00 65 1013.4
20240222061604 12 191 1.6 4.8 0.00 0.00 0.00 65 1013.4
20240222061404 12 191 1.6 4.8 0.00 0.00 0.00 65 1013.4
20240222061225 12 189 1.6 4.8 0.00 0.00 0.00 65 1013.5
20240222061004 12 191 1.6 8.0 0.00 0.00 0.00 65 1013.4
20240222060804 12 195 1.6 8.0 0.00 0.00 0.00 65 1013.5
20240222060604 12 194 1.6 8.0 0.00 0.00 0.00 65 1013.5
20240222060405 12 197 1.6 8.0 0.00 0.00 0.00 65 1013.6
20240222060226 12 201 1.6 8.0 0.00 0.00 0.00 65 1013.7
20240222060006 12 194 1.6 8.0 0.00 0.00 0.00 65 1013.7
20240222055805 12 190 1.6 8.0 0.00 0.00 0.00 65 1013.6
20240222055604 12 187 1.6 8.0 0.00 0.00 0.00 64 1013.6
20240222055426 12 184 1.6 8.0 0.00 0.00 0.00 64 1013.6
20240222055205 12 187 1.6 8.0 0.00 0.00 0.00 64 1013.6
20240222055004 12 192 1.6 3.2 0.00 0.00 0.00 64 1013.6
20240222054826 12 191 1.6 3.2 0.00 0.00 0.00 64 1013.7
20240222054604 12 191 1.6 3.2 0.00 0.00 0.00 64 1013.7
20240222054426 12 200 1.6 3.2 0.00 0.00 0.00 64 1013.7
20240222054226 12 194 1.6 3.2 0.00 0.00 0.00 64 1013.7
20240222054004 12 191 1.6 3.2 0.00 0.00 0.00 64 1013.6
20240222053805 12 199 1.6 3.2 0.00 0.00 0.00 64 1013.7
20240222053626 12 203 1.6 3.2 0.00 0.00 0.00 64 1013.7
20240222053426 12 194 1.6 3.2 0.00 0.00 0.00 63 1013.7
20240222053204 12 194 1.6 4.8 0.00 0.00 0.00 63 1013.6
20240222053004 13 199 1.6 4.8 0.00 0.00 0.00 63 1013.6
20240222052804 13 194 1.6 4.8 0.00 0.00 0.00 63 1013.7
20240222052605 13 187 1.6 4.8 0.00 0.00 0.00 62 1013.7
20240222052404 13 189 1.6 4.8 0.00 0.00 0.00 62 1013.8
20240222052205 13 187 1.6 8.0 0.00 0.00 0.00 62 1013.8
20240222052005 13 185 1.6 8.0 0.00 0.00 0.00 62 1013.7
20240222051805 13 185 1.6 8.0 0.00 0.00 0.00 62 1013.8
20240222051605 13 187 1.6 8.0 0.00 0.00 0.00 62 1013.7
20240222051405 13 190 1.6 8.0 0.00 0.00 0.00 62 1013.8
20240222051205 13 193 1.6 4.8 0.00 0.00 0.00 62 1013.8
20240222051004 13 195 1.6 4.8 0.00 0.00 0.00 62 1013.8
20240222050825 13 192 1.6 4.8 0.00 0.00 0.00 61 1013.8
20240222050627 13 185 1.6 4.8 0.00 0.00 0.00 61 1013.9
20240222050425 13 183 3.2 8.0 0.00 0.00 0.00 61 1013.9
20240222050204 13 180 3.2 8.0 0.00 0.00 0.00 61 1013.9
20240222050004 13 177 3.2 8.0 0.00 0.00 0.00 60 1013.8
20240222045804 13 178 3.2 8.0 0.00 0.00 0.00 60 1013.8
20240222045604 13 181 3.2 8.0 0.00 0.00 0.00 60 1013.8
20240222045405 13 176 3.2 6.4 0.00 0.00 0.00 60 1013.9
20240222045205 13 174 1.6 6.4 0.00 0.00 0.00 60 1013.9
20240222045026 13 178 1.6 6.4 0.00 0.00 0.00 60 1014.1
20240222044805 13 174 1.6 6.4 0.00 0.00 0.00 60 1014.1
20240222044604 13 171 1.6 6.4 0.00 0.00 0.00 60 1014.1
20240222044404 13 170 1.6 6.4 0.00 0.00 0.00 60 1014.2
20240222044225 13 169 1.6 6.4 0.00 0.00 0.00 60 1014.1
20240222044004 13 164 1.6 6.4 0.00 0.00 0.00 60 1014.1
20240222043804 13 159 1.6 4.8 0.00 0.00 0.00 59 1014.3
20240222043604 13 159 1.6 4.8 0.00 0.00 0.00 59 1014.2
20240222043404 13 165 1.6 4.8 0.00 0.00 0.00 59 1014.2
20240222043205 13 162 1.6 4.8 0.00 0.00 0.00 59 1014.2
20240222043026 13 158 1.6 4.8 0.00 0.00 0.00 59 1014.3
20240222042805 13 168 3.2 4.8 0.00 0.00 0.00 58 1014.3
20240222042605 13 168 3.2 4.8 0.00 0.00 0.00 58 1014.3
20240222042407 13 164 3.2 4.8 0.00 0.00 0.00 58 1014.4
20240222042204 13 166 3.2 4.8 0.00 0.00 0.00 58 1014.4
20240222042004 14 169 3.2 6.4 0.00 0.00 0.00 58 1014.4
20240222041804 14 165 3.2 6.4 0.00 0.00 0.00 58 1014.4
20240222041604 14 166 3.2 6.4 0.00 0.00 0.00 58 1014.5
20240222041404 14 163 3.2 8.0 0.00 0.00 0.00 58 1014.5
20240222041204 14 164 3.2 8.0 0.00 0.00 0.00 58 1014.5
20240222041025 14 161 3.2 8.0 0.00 0.00 0.00 58 1014.5
20240222040826 14 162 3.2 8.0 0.00 0.00 0.00 58 1014.5
20240222040605 14 165 3.2 8.0 0.00 0.00 0.00 58 1014.6
20240222040405 14 169 3.2 6.4 0.00 0.00 0.00 58 1014.5
20240222040205 14 167 3.2 6.4 0.00 0.00 0.00 58 1014.5
20240222040004 14 172 3.2 6.4 0.00 0.00 0.00 58 1014.5
20240222035804 14 166 3.2 6.4 0.00 0.00 0.00 58 1014.5
20240222035604 14 166 3.2 8.0 0.00 0.00 0.00 58 1014.4
20240222035404 14 165 3.2 8.0 0.00 0.00 0.00 58 1014.5
20240222035204 14 163 3.2 8.0 0.00 0.00 0.00 58 1014.5
20240222035004 14 161 3.2 8.0 0.00 0.00 0.00 58 1014.6
20240222034804 14 165 3.2 8.0 0.00 0.00 0.00 58 1014.6
20240222034605 14 164 3.2 6.4 0.00 0.00 0.00 58 1014.7
20240222034405 14 164 3.2 4.8 0.00 0.00 0.00 58 1014.7
20240222034226 14 166 3.2 6.4 0.00 0.00 0.00 58 1014.7
20240222034025 14 171 3.2 6.4 0.00 0.00 0.00 58 1014.8
20240222033804 14 173 3.2 6.4 0.00 0.00 0.00 58 1014.8
20240222033625 14 172 1.6 6.4 0.00 0.00 0.00 58 1014.9
20240222033404 14 169 1.6 6.4 0.00 0.00 0.00 58 1014.9
20240222033204 14 173 3.2 6.4 0.00 0.00 0.00 58 1014.9
20240222033005 14 164 3.2 9.7 0.00 0.00 0.00 58 1014.8
20240222032804 14 166 3.2 9.7 0.00 0.00 0.00 58 1014.9
20240222032604 14 170 3.2 9.7 0.00 0.00 0.00 58 1014.9
20240222032404 14 170 3.2 9.7 0.00 0.00 0.00 58 1015.0
20240222032205 14 167 3.2 9.7 0.00 0.00 0.00 58 1015.0
20240222032005 14 174 3.2 6.4 0.00 0.00 0.00 58 1015.0
20240222031805 14 178 3.2 6.4 0.00 0.00 0.00 58 1015.0
20240222031605 14 175 1.6 6.4 0.00 0.00 0.00 58 1015.0
20240222031404 14 181 1.6 6.4 0.00 0.00 0.00 58 1015.1
20240222031204 14 185 1.6 6.4 0.00 0.00 0.00 59 1015.2
20240222031004 14 185 1.6 6.4 0.00 0.00 0.00 59 1015.2
20240222030804 14 181 1.6 6.4 0.00 0.00 0.00 59 1015.2
20240222030604 14 183 1.6 6.4 0.00 0.00 0.00 59 1015.2
20240222030404 14 182 1.6 4.8 0.00 0.00 0.00 59 1015.2
20240222030205 14 186 1.6 4.8 0.00 0.00 0.00 59 1015.2
20240222030005 14 181 1.6 4.8 0.00 0.00 0.00 58 1015.2
20240222025825 14 186 1.6 4.8 0.00 0.00 0.00 58 1015.3
20240222025604 14 184 1.6 4.8 0.00 0.00 0.00 58 1015.3
20240222025426 14 179 1.6 4.8 0.00 0.00 0.00 58 1015.3
20240222025205 14 173 1.6 4.8 0.00 0.00 0.00 58 1015.3
20240222025005 14 173 1.6 4.8 0.00 0.00 0.00 58 1015.3
20240222024804 14 169 1.6 4.8 0.00 0.00 0.00 58 1015.2
20240222024604 14 172 1.6 4.8 0.00 0.00 0.00 58 1015.3
20240222024404 14 176 1.6 4.8 0.00 0.00 0.00 58 1015.3
20240222024204 14 185 1.6 4.8 0.00 0.00 0.00 58 1015.4
20240222024004 14 192 1.6 4.8 0.00 0.00 0.00 58 1015.4
20240222023804 14 188 1.6 4.8 0.00 0.00 0.00 59 1015.4
20240222023604 14 185 1.6 4.8 0.00 0.00 0.00 59 1015.4
20240222023405 14 187 1.6 4.8 0.00 0.00 0.00 59 1015.4
20240222023205 14 185 1.6 4.8 0.00 0.00 0.00 59 1015.4
20240222023027 14 181 1.6 4.8 0.00 0.00 0.00 59 1015.4
20240222022805 14 183 1.6 4.8 0.00 0.00 0.00 59 1015.4
20240222022625 14 183 1.6 4.8 0.00 0.00 0.00 59 1015.4
20240222022404 14 182 1.6 4.8 0.00 0.00 0.00 59 1015.4
20240222022204 14 180 1.6 4.8 0.00 0.00 0.00 59 1015.4
20240222022004 14 179 1.6 4.8 0.00 0.00 0.00 60 1015.5
20240222021804 14 181 1.6 4.8 0.00 0.00 0.00 60 1015.5
20240222021604 14 178 1.6 4.8 0.00 0.00 0.00 60 1015.4
20240222021404 14 181 1.6 4.8 0.00 0.00 0.00 60 1015.5
20240222021204 14 180 1.6 4.8 0.00 0.00 0.00 60 1015.5
20240222021006 14 180 1.6 4.8 0.00 0.00 0.00 60 1015.5
20240222020804 14 183 1.6 4.8 0.00 0.00 0.00 60 1015.6
20240222020605 14 186 1.6 3.2 0.00 0.00 0.00 60 1015.6
20240222020405 14 186 1.6 3.2 0.00 0.00 0.00 61 1015.6
20240222020225 13 184 1.6 3.2 0.00 0.00 0.00 61 1015.6
20240222020004 13 190 1.6 3.2 0.00 0.00 0.00 61 1015.6
20240222015804 13 196 1.6 6.4 0.00 0.00 0.00 61 1015.6
20240222015625 13 198 1.6 6.4 0.00 0.00 0.00 61 1015.6
20240222015405 13 191 1.6 6.4 0.00 0.00 0.00 61 1015.6
20240222015225 13 196 1.6 6.4 0.00 0.00 0.00 61 1015.6
20240222015004 13 198 1.6 6.4 0.00 0.00 0.00 61 1015.6
20240222014804 13 199 1.6 4.8 0.00 0.00 0.00 61 1015.6
20240222014604 13 197 1.6 4.8 0.00 0.00 0.00 61 1015.6
20240222014404 13 199 1.6 3.2 0.00 0.00 0.00 61 1015.6
20240222014204 13 191 1.6 3.2 0.00 0.00 0.00 61 1015.7
20240222014005 13 186 1.6 3.2 0.00 0.00 0.00 61 1015.6
20240222013825 13 184 1.6 3.2 0.00 0.00 0.00 61 1015.6
20240222013604 13 181 0.0 3.2 0.00 0.00 0.00 61 1015.6
20240222013405 13 186 0.0 3.2 0.00 0.00 0.00 61 1015.6
20240222013205 13 188 0.0 3.2 0.00 0.00 0.00 61 1015.6
20240222013005 13 193 0.0 3.2 0.00 0.00 0.00 61 1015.6
20240222012804 13 193 0.0 3.2 0.00 0.00 0.00 61 1015.7
20240222012604 13 190 0.0 1.6 0.00 0.00 0.00 61 1015.6
20240222012425 13 182 0.0 1.6 0.00 0.00 0.00 60 1015.6
20240222012204 13 175 0.0 1.6 0.00 0.00 0.00 60 1015.6
20240222012004 14 174 0.0 1.6 0.00 0.00 0.00 60 1015.7
20240222011804 14 174 0.0 1.6 0.00 0.00 0.00 60 1015.6
20240222011604 14 156 0.0 1.6 0.00 0.00 0.00 59 1015.6
20240222011404 14 137 0.0 1.6 0.00 0.00 0.00 59 1015.6
20240222011204 14 141 0.0 1.6 0.00 0.00 0.00 59 1015.6
20240222011004 14 142 0.0 1.6 0.00 0.00 0.00 59 1015.5
20240222010826 14 148 0.0 1.6 0.00 0.00 0.00 59 1015.5
20240222010606 14 153 0.0 1.6 0.00 0.00 0.00 58 1015.5
20240222010405 14 173 0.0 3.2 0.00 0.00 0.00 58 1015.5
20240222010205 15 179 0.0 3.2 0.00 0.00 0.00 58 1015.5
20240222010005 15 180 0.0 3.2 0.00 0.00 0.00 58 1015.5
20240222005805 15 177 0.0 3.2 0.00 0.00 0.00 58 1015.6
20240222005626 15 176 0.0 3.2 0.00 0.00 0.00 58 1015.6
20240222005404 15 162 0.0 1.6 0.00 0.00 0.00 58 1015.5
20240222005204 15 163 0.0 1.6 0.00 0.00 0.00 58 1015.5
20240222005004 15 161 0.0 1.6 0.00 0.00 0.00 58 1015.5
20240222004804 15 161 0.0 1.6 0.00 0.00 0.00 58 1015.4
20240222004605 15 163 0.0 1.6 0.00 0.00 0.00 58 1015.4
20240222004426 15 163 0.0 1.6 0.00 0.00 0.00 58 1015.5
20240222004204 15 161 0.0 1.6 0.00 0.00 0.00 58 1015.5
20240222004005 15 159 0.0 1.6 0.00 0.00 0.00 58 1015.5
20240222003828 15 170 0.0 1.6 0.00 0.00 0.00 58 1015.6
20240222003605 15 192 0.0 1.6 0.00 0.00 0.00 58 1015.6
20240222003405 15 192 0.0 1.6 0.00 0.00 0.00 57 1015.6
20240222003207 15 191 0.0 1.6 0.00 0.00 0.00 57 1015.6
20240222003004 15 190 0.0 1.6 0.00 0.00 0.00 57 1015.6
20240222002804 15 188 0.0 1.6 0.00 0.00 0.00 57 1015.6
20240222002604 15 179 0.0 1.6 0.00 0.00 0.00 56 1015.7
20240222002404 15 172 0.0 1.6 0.00 0.00 0.00 56 1015.6
20240222002204 16 167 0.0 1.6 0.00 0.00 0.00 56 1015.6
20240222002004 16 167 0.0 1.6 0.00 0.00 0.00 55 1015.6
20240222001804 16 172 0.0 3.2 0.00 0.00 0.00 55 1015.7
20240222001604 16 178 0.0 3.2 0.00 0.00 0.00 55 1015.7
20240222001426 16 182 1.6 3.2 0.00 0.00 0.00 55 1015.6
20240222001204 16 183 1.6 3.2 0.00 0.00 0.00 55 1015.8
20240222001004 16 176 1.6 3.2 0.00 0.00 0.00 54 1015.8
20240222000805 16 172 1.6 3.2 0.00 0.00 0.00 54 1015.9
20240222000605 16 171 1.6 3.2 0.00 0.00 0.00 54 1015.8
20240222000404 16 170 1.6 3.2 0.00 0.00 0.00 54 1015.9
20240222000226 16 174 1.6 3.2 0.00 0.00 0.00 54 1015.9
20240222000004 16 172 1.6 3.2 0.00 0.00 0.00 54 1015.9
20240221235826 16 172 1.6 3.2 0.00 0.00 0.00 54 1015.9
20240221235625 16 168 1.6 3.2 0.00 0.00 0.00 53 1016.0
20240221235405 16 167 1.6 4.8 0.00 0.00 0.00 54 1016.0
20240221235205 16 164 1.6 4.8 0.00 0.00 0.00 54 1016.0
20240221235005 16 167 1.6 4.8 0.00 0.00 0.00 54 1016.1
20240221234804 16 169 1.6 4.8 0.00 0.00 0.00 53 1016.1
20240221234604 16 174 1.6 4.8 0.00 0.00 0.00 54 1016.1
20240221234405 16 176 1.6 4.8 0.00 0.00 0.00 53 1016.1
20240221234225 16 179 1.6 4.8 0.00 0.00 0.00 53 1016.2
20240221234004 16 178 1.6 4.8 0.00 0.00 0.00 53 1016.2
20240221233825 16 184 1.6 3.2 0.00 0.00 0.00 53 1016.2
20240221233606 16 181 1.6 3.2 0.00 0.00 0.00 53 1016.3
20240221233404 17 183 1.6 3.2 0.00 0.00 0.00 53 1016.2
20240221233204 17 182 1.6 3.2 0.00 0.00 0.00 53 1016.2
20240221233004 17 185 1.6 3.2 0.00 0.00 0.00 53 1016.2
20240221232825 17 188 1.6 4.8 0.00 0.00 0.00 52 1016.2
20240221232606 17 196 1.6 4.8 0.00 0.00 0.00 52 1016.3
20240221232405 17 196 1.6 4.8 0.00 0.00 0.00 52 1016.3
20240221232204 17 193 1.6 4.8 0.00 0.00 0.00 51 1016.3
20240221232004 17 188 1.6 4.8 0.00 0.00 0.00 51 1016.3
20240221231825 17 180 1.6 8.0 0.00 0.00 0.00 51 1016.3
20240221231626 17 176 1.6 8.0 0.00 0.00 0.00 51 1016.2
20240221231405 17 173 1.6 8.0 0.00 0.00 0.00 51 1016.2
20240221231204 17 174 3.2 8.0 0.00 0.00 0.00 50 1016.2
20240221231004 18 171 3.2 8.0 0.00 0.00 0.00 50 1016.1
20240221230804 18 175 3.2 6.4 0.00 0.00 0.00 50 1016.2
20240221230604 18 172 3.2 8.0 0.00 0.00 0.00 50 1016.2
20240221230405 18 170 3.2 8.0 0.00 0.00 0.00 50 1016.2
20240221230205 18 166 3.2 8.0 0.00 0.00 0.00 49 1016.2
20240221230004 18 166 3.2 8.0 0.00 0.00 0.00 49 1016.2
20240221225805 18 159 3.2 8.0 0.00 0.00 0.00 49 1016.1
20240221225605 18 156 3.2 11.3 0.00 0.00 0.00 49 1016.2
20240221225405 18 155 3.2 11.3 0.00 0.00 0.00 49 1016.2
20240221225204 18 156 3.2 11.3 0.00 0.00 0.00 49 1016.3
20240221225004 18 160 3.2 11.3 0.00 0.00 0.00 49 1016.4
20240221224805 18 169 3.2 11.3 0.00 0.00 0.00 50 1016.4
20240221224605 18 175 3.2 6.4 0.00 0.00 0.00 49 1016.5
20240221224404 18 183 3.2 6.4 0.00 0.00 0.00 50 1016.6
20240221224204 18 181 3.2 6.4 0.00 0.00 0.00 49 1016.6
20240221224004 18 169 3.2 6.4 0.00 0.00 0.00 49 1016.7
20240221223804 18 168 3.2 6.4 0.00 0.00 0.00 49 1016.7
20240221223605 18 171 3.2 6.4 0.00 0.00 0.00 49 1016.8
20240221223405 18 165 3.2 6.4 0.00 0.00 0.00 48 1016.8
20240221223204 18 167 3.2 6.4 0.00 0.00 0.00 48 1016.9
20240221223004 18 179 3.2 6.4 0.00 0.00 0.00 49 1016.9
20240221222806 18 171 3.2 11.3 0.00 0.00 0.00 49 1017.0
20240221222605 18 168 3.2 11.3 0.00 0.00 0.00 48 1017.0
20240221222405 19 171 3.2 11.3 0.00 0.00 0.00 48 1017.0
20240221222225 19 170 3.2 11.3 0.00 0.00 0.00 48 1017.1
20240221222004 19 171 3.2 11.3 0.00 0.00 0.00 48 1017.1
20240221221804 19 180 3.2 11.3 0.00 0.00 0.00 47 1017.1
20240221221604 19 175 3.2 9.7 0.00 0.00 0.00 47 1017.1
20240221221405 19 166 3.2 11.3 0.00 0.00 0.00 47 1017.1
20240221221225 19 165 3.2 11.3 0.00 0.00 0.00 47 1017.2
20240221221004 20 166 3.2 11.3 0.00 0.00 0.00 47 1017.2
20240221220805 20 161 3.2 11.3 0.00 0.00 0.00 47 1017.2
20240221220626 20 161 3.2 11.3 0.00 0.00 0.00 46 1017.2
20240221220425 20 163 3.2 8.0 0.00 0.00 0.00 46 1017.2
20240221220204 20 169 3.2 8.0 0.00 0.00 0.00 46 1017.3
20240221220004 20 171 3.2 8.0 0.00 0.00 0.00 46 1017.3
20240221215806 20 172 4.8 9.7 0.00 0.00 0.00 46 1017.3
20240221215605 20 172 4.8 9.7 0.00 0.00 0.00 45 1017.4
20240221215405 20 173 4.8 9.7 0.00 0.00 0.00 46 1017.5
20240221215204 20 167 4.8 9.7 0.00 0.00 0.00 46 1017.5
20240221215026 20 163 4.8 9.7 0.00 0.00 0.00 46 1017.5
20240221214804 20 160 4.8 12.9 0.00 0.00 0.00 45 1017.5
20240221214604 20 156 4.8 12.9 0.00 0.00 0.00 45 1017.6
20240221214405 20 158 3.2 12.9 0.00 0.00 0.00 45 1017.6
20240221214206 20 162 3.2 12.9 0.00 0.00 0.00 45 1017.7
20240221214004 20 163 3.2 12.9 0.00 0.00 0.00 44 1017.7
20240221213804 20 167 3.2 9.7 0.00 0.00 0.00 44 1017.8
20240221213625 20 171 3.2 9.7 0.00 0.00 0.00 44 1017.8
20240221213404 20 177 3.2 9.7 0.00 0.00 0.00 44 1017.8
20240221213204 20 175 3.2 9.7 0.00 0.00 0.00 44 1017.9
20240221213004 20 182 3.2 9.7 0.00 0.00 0.00 45 1017.9
20240221212804 20 185 3.2 6.4 0.00 0.00 0.00 45 1017.9
20240221212625 20 181 3.2 8.0 0.00 0.00 0.00 45 1018.0
20240221212404 20 175 3.2 8.0 0.00 0.00 0.00 45 1018.0
20240221212204 20 171 3.2 8.0 0.00 0.00 0.00 46 1018.0
20240221212004 20 167 3.2 8.0 0.00 0.00 0.00 44 1018.0
20240221211804 20 167 3.2 9.7 0.00 0.00 0.00 44 1018.1
20240221211605 20 166 3.2 9.7 0.00 0.00 0.00 44 1018.1
20240221211404 20 169 3.2 9.7 0.00 0.00 0.00 44 1018.1
20240221211204 20 174 3.2 9.7 0.00 0.00 0.00 44 1018.1
20240221211004 20 177 4.8 9.7 0.00 0.00 0.00 44 1018.1
20240221210826 20 177 4.8 9.7 0.00 0.00 0.00 44 1018.1
20240221210605 20 174 4.8 16.1 0.00 0.00 0.00 45 1018.2
20240221210405 20 182 4.8 16.1 0.00 0.00 0.00 44 1018.2
20240221210204 20 187 3.2 16.1 0.00 0.00 0.00 44 1018.2
20240221210004 20 191 3.2 16.1 0.00 0.00 0.00 43 1018.3
20240221205804 20 204 3.2 16.1 0.00 0.00 0.00 43 1018.3
20240221205606 20 217 3.2 9.7 0.00 0.00 0.00 43 1018.3
20240221205426 20 215 3.2 8.0 0.00 0.00 0.00 43 1018.3
20240221205205 20 218 3.2 8.0 0.00 0.00 0.00 44 1018.3
20240221205004 20 223 3.2 8.0 0.00 0.00 0.00 44 1018.3
20240221204804 20 201 3.2 6.4 0.00 0.00 0.00 44 1018.4
20240221204604 20 195 3.2 6.4 0.00 0.00 0.00 44 1018.5
20240221204404 20 198 4.8 6.4 0.00 0.00 0.00 44 1018.6
20240221204205 20 191 4.8 9.7 0.00 0.00 0.00 44 1018.6
20240221204004 20 173 4.8 9.7 0.00 0.00 0.00 43 1018.5
20240221203805 20 174 4.8 9.7 0.00 0.00 0.00 44 1018.6
20240221203604 20 173 4.8 9.7 0.00 0.00 0.00 44 1018.6
20240221203404 20 167 3.2 9.7 0.00 0.00 0.00 42 1018.6
20240221203204 21 174 3.2 9.7 0.00 0.00 0.00 42 1018.7
20240221203005 21 177 3.2 8.0 0.00 0.00 0.00 42 1018.7
20240221202804 21 187 3.2 8.0 0.00 0.00 0.00 42 1018.8
20240221202604 21 190 3.2 8.0 0.00 0.00 0.00 45 1018.8
20240221202404 21 201 3.2 8.0 0.00 0.00 0.00 43 1018.8
20240221202204 21 199 3.2 8.0 0.00 0.00 0.00 44 1018.8
20240221202004 21 202 3.2 6.4 0.00 0.00 0.00 45 1018.8
20240221201804 20 192 3.2 9.7 0.00 0.00 0.00 44 1018.8
20240221201625 20 190 3.2 11.3 0.00 0.00 0.00 44 1018.9
20240221201405 20 190 4.8 11.3 0.00 0.00 0.00 44 1019.0
20240221201205 20 187 4.8 11.3 0.00 0.00 0.00 44 1019.0
20240221201004 20 201 4.8 11.3 0.00 0.00 0.00 43 1019.1
20240221200804 20 228 4.8 11.3 0.00 0.00 0.00 44 1019.1
20240221200604 20 226 4.8 8.0 0.00 0.00 0.00 44 1019.1
20240221200426 20 216 4.8 8.0 0.00 0.00 0.00 44 1019.2
20240221200204 20 219 3.2 8.0 0.00 0.00 0.00 44 1019.2
20240221200004 20 205 3.2 8.0 0.00 0.00 0.00 45 1019.3
20240221195804 21 184 3.2 9.7 0.00 0.00 0.00 44 1019.4
20240221195605 20 188 3.2 9.7 0.00 0.00 0.00 45 1019.4
20240221195405 20 191 3.2 9.7 0.00 0.00 0.00 45 1019.4
20240221195204 20 187 3.2 11.3 0.00 0.00 0.00 44 1019.5
20240221195004 20 181 3.2 11.3 0.00 0.00 0.00 44 1019.6
20240221194805 20 173 3.2 11.3 0.00 0.00 0.00 45 1019.6
20240221194605 20 172 3.2 11.3 0.00 0.00 0.00 44 1019.6
20240221194405 20 174 3.2 11.3 0.00 0.00 0.00 44 1019.7
20240221194225 20 168 3.2 11.3 0.00 0.00 0.00 44 1019.7
20240221194004 20 172 3.2 9.7 0.00 0.00 0.00 44 1019.7
20240221193825 20 184 3.2 9.7 0.00 0.00 0.00 44 1019.7
20240221193605 20 196 3.2 9.7 0.00 0.00 0.00 45 1019.8
20240221193405 20 208 3.2 8.0 0.00 0.00 0.00 45 1019.8
20240221193225 20 217 3.2 8.0 0.00 0.00 0.00 46 1019.9
20240221193026 20 226 3.2 6.4 0.00 0.00 0.00 47 1019.8
20240221192805 20 243 3.2 8.0 0.00 0.00 0.00 45 1019.9
20240221192605 20 244 3.2 8.0 0.00 0.00 0.00 48 1020.0
20240221192404 20 242 3.2 8.0 0.00 0.00 0.00 46 1019.9
20240221192204 20 234 4.8 9.7 0.00 0.00 0.00 47 1020.0
20240221192025 20 236 3.2 12.9 0.00 0.00 0.00 46 1020.0
20240221191804 20 217 3.2 12.9 0.00 0.00 0.00 46 1020.2
20240221191605 20 213 3.2 12.9 0.00 0.00 0.00 47 1020.2
20240221191404 20 217 3.2 12.9 0.00 0.00 0.00 45 1020.3
20240221191205 20 223 3.2 12.9 0.00 0.00 0.00 46 1020.4
20240221191004 20 217 3.2 9.7 0.00 0.00 0.00 47 1020.4
20240221190804 20 223 3.2 9.7 0.00 0.00 0.00 46 1020.4
20240221190605 20 217 3.2 9.7 0.00 0.00 0.00 47 1020.4
20240221190404 20 208 3.2 9.7 0.00 0.00 0.00 47 1020.5
20240221190225 19 195 3.2 9.7 0.00 0.00 0.00 47 1020.5
20240221190004 19 183 3.2 9.7 0.00 0.00 0.00 48 1020.5
20240221185805 19 175 3.2 9.7 0.00 0.00 0.00 47 1020.7
20240221185604 19 186 4.8 9.7 0.00 0.00 0.00 47 1020.7
20240221185426 19 186 4.8 9.7 0.00 0.00 0.00 47 1020.8
20240221185204 19 188 4.8 8.0 0.00 0.00 0.00 48 1020.9
20240221185004 19 177 4.8 12.9 0.00 0.00 0.00 48 1021.0
20240221184825 19 169 4.8 12.9 0.00 0.00 0.00 47 1021.0
20240221184604 19 165 4.8 12.9 0.00 0.00 0.00 48 1021.0
20240221184404 19 163 3.2 12.9 0.00 0.00 0.00 46 1021.1
20240221184226 19 162 3.2 12.9 0.00 0.00 0.00 46 1021.1
20240221184004 19 167 3.2 9.7 0.00 0.00 0.00 47 1021.2
20240221183804 19 173 3.2 9.7 0.00 0.00 0.00 47 1021.2
20240221183604 19 175 4.8 9.7 0.00 0.00 0.00 47 1021.2
20240221183425 19 175 4.8 9.7 0.00 0.00 0.00 48 1021.3
20240221183204 19 182 4.8 9.7 0.00 0.00 0.00 48 1021.4
20240221183005 19 186 4.8 9.7 0.00 0.00 0.00 48 1021.5
20240221182804 19 187 4.8 9.7 0.00 0.00 0.00 47 1021.5
20240221182604 19 188 4.8 9.7 0.00 0.00 0.00 49 1021.6
20240221182404 19 190 4.8 9.7 0.00 0.00 0.00 49 1021.6
20240221182225 19 185 4.8 8.0 0.00 0.00 0.00 49 1021.6
20240221182005 19 187 4.8 8.0 0.00 0.00 0.00 48 1021.6
20240221181826 19 190 3.2 9.7 0.00 0.00 0.00 48 1021.7
20240221181604 19 191 3.2 9.7 0.00 0.00 0.00 49 1021.8
20240221181404 19 184 3.2 12.9 0.00 0.00 0.00 49 1021.8
20240221181204 18 198 3.2 12.9 0.00 0.00 0.00 50 1021.8
20240221181004 18 210 3.2 12.9 0.00 0.00 0.00 50 1021.9
20240221180804 18 216 3.2 12.9 0.00 0.00 0.00 50 1022.0
20240221180625 18 212 4.8 12.9 0.00 0.00 0.00 49 1022.1
20240221180404 18 239 4.8 9.7 0.00 0.00 0.00 50 1022.2
20240221180204 18 234 4.8 9.7 0.00 0.00 0.00 50 1022.2
20240221180005 18 226 4.8 9.7 0.00 0.00 0.00 51 1022.2
20240221175805 18 216 4.8 9.7 0.00 0.00 0.00 51 1022.2
20240221175626 18 215 4.8 9.7 0.00 0.00 0.00 50 1022.3
20240221175404 18 199 4.8 9.7 0.00 0.00 0.00 49 1022.3
20240221175226 18 201 4.8 14.5 0.00 0.00 0.00 50 1022.4
20240221175004 18 209 4.8 14.5 0.00 0.00 0.00 50 1022.4
20240221174804 18 215 4.8 14.5 0.00 0.00 0.00 50 1022.4
20240221174605 18 221 4.8 14.5 0.00 0.00 0.00 51 1022.5
20240221174404 18 215 4.8 14.5 0.00 0.00 0.00 50 1022.6
20240221174204 18 205 4.8 11.3 0.00 0.00 0.00 49 1022.5
20240221174004 18 199 4.8 11.3 0.00 0.00 0.00 49 1022.6
20240221173806 18 193 4.8 9.7 0.00 0.00 0.00 50 1022.6
20240221173605 18 200 4.8 9.7 0.00 0.00 0.00 50 1022.6
20240221173405 18 212 3.2 8.0 0.00 0.00 0.00 50 1022.7
20240221173204 18 209 3.2 11.3 0.00 0.00 0.00 50 1022.6
20240221173004 18 205 3.2 11.3 0.00 0.00 0.00 51 1022.7
20240221172804 18 210 3.2 16.1 0.00 0.00 0.00 52 1022.7
20240221172604 18 207 4.8 16.1 0.00 0.00 0.00 51 1022.8
20240221172404 18 212 4.8 16.1 0.00 0.00 0.00 50 1022.7
20240221172205 18 222 4.8 16.1 0.00 0.00 0.00 50 1022.8
20240221172005 18 227 4.8 16.1 0.00 0.00 0.00 52 1022.8
20240221171825 18 225 4.8 11.3 0.00 0.00 0.00 51 1022.9
20240221171604 17 218 3.2 11.3 0.00 0.00 0.00 50 1022.9
20240221171404 17 219 3.2 11.3 0.00 0.00 0.00 50 1022.9
20240221171204 17 219 3.2 11.3 0.00 0.00 0.00 50 1023.0
20240221171005 18 222 3.2 9.7 0.00 0.00 0.00 50 1023.0
20240221170804 17 226 3.2 9.7 0.00 0.00 0.00 50 1023.1
20240221170604 17 228 3.2 9.7 0.00 0.00 0.00 52 1023.1
20240221170404 17 225 3.2 9.7 0.00 0.00 0.00 50 1023.1
20240221170205 17 226 3.2 9.7 0.00 0.00 0.00 50 1023.2
20240221170004 17 224 3.2 8.0 0.00 0.00 0.00 51 1023.2
20240221165804 17 226 3.2 8.0 0.00 0.00 0.00 51 1023.2
20240221165625 17 229 3.2 8.0 0.00 0.00 0.00 52 1023.3
20240221165404 17 211 3.2 8.0 0.00 0.00 0.00 51 1023.3
20240221165205 17 201 3.2 8.0 0.00 0.00 0.00 52 1023.3
20240221165005 17 199 3.2 8.0 0.00 0.00 0.00 53 1023.3
20240221164804 17 200 3.2 8.0 0.00 0.00 0.00 52 1023.4
20240221164604 17 218 3.2 8.0 0.00 0.00 0.00 50 1023.4
20240221164404 17 235 3.2 8.0 0.00 0.00 0.00 53 1023.4
20240221164226 17 244 3.2 8.0 0.00 0.00 0.00 53 1023.4
20240221164005 17 238 3.2 8.0 0.00 0.00 0.00 52 1023.5
20240221163804 17 242 3.2 8.0 0.00 0.00 0.00 53 1023.5
20240221163604 17 237 3.2 8.0 0.00 0.00 0.00 53 1023.5
20240221163425 17 239 3.2 8.0 0.00 0.00 0.00 52 1023.5
20240221163205 17 228 3.2 8.0 0.00 0.00 0.00 52 1023.5
20240221163005 16 237 3.2 8.0 0.00 0.00 0.00 51 1023.6
20240221162804 16 235 3.2 8.0 0.00 0.00 0.00 51 1023.6
20240221162604 16 233 3.2 8.0 0.00 0.00 0.00 52 1023.6
20240221162404 16 234 3.2 8.0 0.00 0.00 0.00 52 1023.7
20240221162204 16 239 3.2 8.0 0.00 0.00 0.00 52 1023.6
20240221162006 16 242 3.2 8.0 0.00 0.00 0.00 53 1023.6
20240221161804 16 242 3.2 8.0 0.00 0.00 0.00 52 1023.7
20240221161604 16 245 3.2 8.0 0.00 0.00 0.00 53 1023.7
20240221161404 16 252 3.2 9.7 0.00 0.00 0.00 52 1023.8
20240221161225 16 255 3.2 9.7 0.00 0.00 0.00 54 1023.9
20240221161004 16 251 3.2 9.7 0.00 0.00 0.00 53 1023.9
20240221160805 16 248 3.2 11.3 0.00 0.00 0.00 52 1023.9
20240221160625 16 249 3.2 11.3 0.00 0.00 0.00 52 1024.0
20240221160404 16 227 3.2 11.3 0.00 0.00 0.00 53 1024.0
20240221160204 16 220 3.2 11.3 0.00 0.00 0.00 53 1024.1
20240221160005 16 207 3.2 11.3 0.00 0.00 0.00 53 1024.0
20240221155826 16 195 3.2 8.0 0.00 0.00 0.00 53 1024.1
20240221155604 16 186 3.2 8.0 0.00 0.00 0.00 54 1024.2
20240221155404 15 193 3.2 8.0 0.00 0.00 0.00 54 1024.2
20240221155204 15 188 3.2 8.0 0.00 0.00 0.00 55 1024.2
20240221155004 15 197 3.2 8.0 0.00 0.00 0.00 55 1024.2
20240221154805 15 199 3.2 8.0 0.00 0.00 0.00 55 1024.2
20240221154605 15 185 3.2 8.0 0.00 0.00 0.00 55 1024.2
20240221154405 15 182 3.2 8.0 0.00 0.00 0.00 55 1024.3
20240221154204 15 184 3.2 8.0 0.00 0.00 0.00 56 1024.2
20240221154026 15 182 3.2 8.0 0.00 0.00 0.00 56 1024.3
20240221153804 15 194 3.2 8.0 0.00 0.00 0.00 55 1024.2
20240221153626 14 200 3.2 8.0 0.00 0.00 0.00 57 1024.3
20240221153426 14 199 3.2 8.0 0.00 0.00 0.00 56 1024.3
20240221153204 14 192 3.2 8.0 0.00 0.00 0.00 57 1024.3
20240221153004 14 198 3.2 8.0 0.00 0.00 0.00 58 1024.4
20240221152825 13 199 3.2 6.4 0.00 0.00 0.00 59 1024.5
20240221152604 13 207 3.2 6.4 0.00 0.00 0.00 59 1024.5
20240221152425 13 209 1.6 6.4 0.00 0.00 0.00 59 1024.5
20240221152204 13 217 1.6 6.4 0.00 0.00 0.00 59 1024.4
20240221152025 13 223 1.6 6.4 0.00 0.00 0.00 59 1024.5
20240221151804 13 226 1.6 6.4 0.00 0.00 0.00 60 1024.5
20240221151604 13 225 1.6 6.4 0.00 0.00 0.00 61 1024.6
20240221151404 12 213 1.6 6.4 0.00 0.00 0.00 62 1024.6
20240221151207 12 206 1.6 6.4 0.00 0.00 0.00 61 1024.6
20240221151004 12 193 1.6 6.4 0.00 0.00 0.00 63 1024.6
20240221150804 12 186 1.6 6.4 0.00 0.00 0.00 64 1024.6
20240221150604 12 190 1.6 6.4 0.00 0.00 0.00 63 1024.7
20240221150404 11 207 1.6 6.4 0.00 0.00 0.00 64 1024.7
20240221150205 11 224 1.6 6.4 0.00 0.00 0.00 64 1024.7
20240221150005 11 220 1.6 6.4 0.00 0.00 0.00 64 1024.7
20240221145804 11 212 1.6 6.4 0.00 0.00 0.00 67 1024.7
20240221145604 11 205 1.6 4.8 0.00 0.00 0.00 67 1024.8
20240221145404 11 198 1.6 4.8 0.00 0.00 0.00 66 1024.8
20240221145225 10 182 1.6 4.8 0.00 0.00 0.00 67 1024.9
20240221145026 10 180 0.0 3.2 0.00 0.00 0.00 69 1025.0
20240221144805 10 184 0.0 3.2 0.00 0.00 0.00 68 1025.1
20240221144604 10 180 0.0 3.2 0.00 0.00 0.00 69 1025.0
20240221144404 9 188 0.0 3.2 0.00 0.00 0.00 69 1025.1
20240221144204 9 171 0.0 3.2 0.00 0.00 0.00 71 1025.1
20240221144004 8 174 0.0 1.6 0.00 0.00 0.00 71 1025.1
20240221143805 8 172 0.0 1.6 0.00 0.00 0.00 72 1025.1
20240221143605 8 152 0.0 1.6 0.00 0.00 0.00 74 1025.1
20240221143404 8 152 0.0 1.6 0.00 0.00 0.00 75 1025.1
20240221143225 7 153 0.0 1.6 0.00 0.00 0.00 75 1025.0
20240221143026 7 161 0.0 1.6 0.00 0.00 0.00 76 1025.0
20240221142804 7 162 0.0 1.6 0.00 0.00 0.00 78 1025.0
20240221142604 6 162 0.0 1.6 0.00 0.00 0.00 79 1025.1
20240221142426 6 166 0.0 1.6 0.00 0.00 0.00 80 1025.1
20240221142204 6 173 0.0 1.6 0.00 0.00 0.00 81 1025.1
20240221142004 5 0 0.0 0.0 0.00 0.00 0.00 82 1025.1
20240221141805 5 0 0.0 0.0 0.00 0.00 0.00 81 1025.1
20240221141604 5 0 0.0 0.0 0.00 0.00 0.00 81 1025.2
20240221141404 4 0 0.0 0.0 0.00 0.00 0.00 81 1025.2
20240221141204 4 0 0.0 0.0 0.00 0.00 0.00 81 1025.2
20240221141025 4 0 0.0 0.0 0.00 0.00 0.00 81 1025.0
20240221140805 3 0 0.0 0.0 0.00 0.00 0.00 81 1025.0
20240221140604 3 0 0.0 0.0 0.00 0.00 0.00 82 1024.9
20240221140404 3 0 0.0 0.0 0.00 0.00 0.00 82 1024.9
20240221140204 3 0 0.0 0.0 0.00 0.00 0.00 82 1024.8
20240221140025 3 0 0.0 0.0 0.00 0.00 0.00 83 1024.8
20240221135825 3 0 0.0 0.0 0.00 0.00 0.00 83 1024.8
20240221135605 3 0 0.0 0.0 0.00 0.00 0.00 83 1025.0
20240221135405 2 0 0.0 0.0 0.00 0.00 0.00 83 1025.1
20240221135225 2 0 0.0 0.0 0.00 0.00 0.00 83 1025.1
20240221135004 2 0 0.0 0.0 0.00 0.00 0.00 84 1025.0
20240221134825 2 0 0.0 0.0 0.00 0.00 0.00 85 1025.0
20240221134604 2 0 0.0 0.0 0.00 0.00 0.00 85 1025.0
20240221134406 1 0 0.0 0.0 0.00 0.00 0.00 85 1025.0
20240221134204 1 0 0.0 0.0 0.00 0.00 0.00 86 1025.0
20240221134004 1 0 0.0 0.0 0.00 0.00 0.00 86 1025.1
20240221133804 1 0 0.0 0.0 0.00 0.00 0.00 86 1025.1
20240221133605 1 0 0.0 0.0 0.00 0.00 0.00 87 1025.0
20240221133426 1 0 0.0 0.0 0.00 0.00 0.00 87 1024.9
20240221133205 1 0 0.0 0.0 0.00 0.00 0.00 88 1024.8
20240221133004 0 0 0.0 0.0 0.00 0.00 0.00 88 1024.8
20240221132804 0 0 0.0 0.0 0.00 0.00 0.00 88 1025.0
20240221132604 0 0 0.0 0.0 0.00 0.00 0.00 89 1025.0
20240221132404 0 0 0.0 0.0 0.00 0.00 0.00 90 1025.0
20240221132225 0 0 0.0 0.0 0.00 0.00 0.00 90 1024.8
20240221132026 0 0 0.0 0.0 0.00 0.00 0.00 90 1024.8
20240221131804 0 0 0.0 0.0 0.00 0.00 0.00 90 1024.9
20240221131604 0 0 0.0 0.0 0.00 0.00 0.00 90 1024.9
20240221131404 0 0 0.0 0.0 0.00 0.00 0.00 90 1024.9
20240221131204 0 0 0.0 0.0 0.00 0.00 0.00 90 1025.0
20240221131004 -1 0 0.0 0.0 0.00 0.00 0.00 91 1025.0
20240221130804 -1 0 0.0 0.0 0.00 0.00 0.00 92 1024.9
20240221130604 -1 0 0.0 0.0 0.00 0.00 0.00 92 1024.8
20240221130405 -1 0 0.0 0.0 0.00 0.00 0.00 91 1024.9
20240221130204 -1 0 0.0 0.0 0.00 0.00 0.00 91 1024.9
20240221130004 -1 0 0.0 0.0 0.00 0.00 0.00 91 1025.0
20240221125804 -1 0 0.0 0.0 0.00 0.00 0.00 91 1025.0
20240221125604 -1 0 0.0 0.0 0.00 0.00 0.00 91 1024.9
20240221125404 -1 0 0.0 0.0 0.00 0.00 0.00 91 1024.9
20240221125226 -1 0 0.0 0.0 0.00 0.00 0.00 91 1025.0
20240221125004 -2 0 0.0 0.0 0.00 0.00 0.00 91 1025.0
20240221124804 -2 0 0.0 0.0 0.00 0.00 0.00 91 1024.9
20240221124604 -2 0 0.0 0.0 0.00 0.00 0.00 91 1024.9
20240221124404 -2 0 0.0 0.0 0.00 0.00 0.00 91 1025.0
20240221124205 -2 0 0.0 0.0 0.00 0.00 0.00 91 1025.0
20240221124026 -2 0 0.0 0.0 0.00 0.00 0.00 91 1025.1
20240221123826 -2 0 0.0 0.0 0.00 0.00 0.00 91 1025.0
20240221123604 -2 0 0.0 0.0 0.00 0.00 0.00 91 1025.0
20240221123404 -2 0 0.0 0.0 0.00 0.00 0.00 91 1025.0
20240221123204 -2 0 0.0 0.0 0.00 0.00 0.00 91 1024.9
20240221123005 -2 0 0.0 0.0 0.00 0.00 0.00 91 1024.9
20240221122805 -2 0 0.0 0.0 0.00 0.00 0.00 91 1024.9
20240221122626 -2 0 0.0 0.0 0.00 0.00 0.00 91 1024.9
20240221122404 -2 0 0.0 0.0 0.00 0.00 0.00 91 1024.9
20240221122204 -2 0 0.0 0.0 0.00 0.00 0.00 91 1025.0
20240221122004 -2 0 0.0 0.0 0.00 0.00 0.00 90 1024.9
20240221121805 -2 0 0.0 0.0 0.00 0.00 0.00 90 1024.8
20240221121604 -2 0 0.0 0.0 0.00 0.00 0.00 90 1024.8